FW0051 Weather Reports


time (UTC)temp
F
wind
direction
speed
knots
gust
knots
rain 1hr
in
rain 24hr
in
rain mn
in
humidity
%
barometer
mb
20260507141511 42 211 3.5 7.8 0.00 0.02 0.01 95 1015.2
20260507140012 42 195 8.7 13.9 0.00 0.02 0.01 94 1015.1
20260507134511 42 188 7.0 10.4 0.00 0.02 0.01 92 1015.0
20260507133012 43 191 8.7 14.8 0.00 0.02 0.01 93 1015.2
20260507131512 43 195 9.6 13.9 0.00 0.03 0.01 92 1015.1
20260507130012 43 195 9.6 14.8 0.00 0.06 0.01 90 1014.9
20260507124512 42 179 5.2 12.2 0.00 0.06 0.01 94 1015.0
20260507123012 42 191 5.2 8.7 0.00 0.06 0.01 96 1015.2
20260507121513 41 192 6.1 12.2 0.00 0.06 0.01 96 1015.2
20260507120019 41 194 9.6 14.8 0.00 0.06 0.01 94 1014.9
20260507114518 42 183 11.3 19.1 0.00 0.06 0.01 94 1014.9
20260507113018 41 166 13.0 19.1 0.00 0.06 0.01 97 1014.9
20260507111518 42 179 11.3 18.2 0.00 0.06 0.01 98 1015.2
20260507110018 40 183 10.4 19.1 0.00 0.06 0.01 98 1014.9
20260507104517 41 184 10.4 18.2 0.01 0.06 0.01 97 1014.9
20260507103017 41 181 10.4 18.2 0.01 0.06 0.01 94 1014.8
20260507101517 42 169 9.6 18.2 0.01 0.06 0.01 96 1015.1
20260507100017 42 185 5.2 13.9 0.01 0.07 0.01 96 1015.2
20260507094517 42 178 8.7 14.8 0.00 0.06 0.00 96 1015.1
20260507093017 41 194 7.8 11.3 0.00 0.06 0.00 96 1015.0
20260507091520 42 185 6.1 12.2 0.00 0.06 0.00 94 1014.8
20260507090017 42 173 5.2 9.6 0.00 0.06 0.00 95 1014.9
20260507084517 42 162 2.6 8.7 0.00 0.07 0.00 95 1014.8
20260507083017 41 201 1.7 4.3 0.00 0.07 0.00 94 1014.6
20260507081517 41 166 3.5 7.8 0.00 0.07 0.00 93 1014.5
20260507080017 40 182 1.7 5.2 0.00 0.07 0.00 94 1014.4
20260507074516 40 175 4.3 7.8 0.00 0.07 0.00 94 1014.2
20260507073016 40 182 3.5 8.7 0.00 0.07 0.00 93 1014.2
20260507070016 41 218 0.0 1.7 0.00 0.07 0.00 89 1013.9
20260507064516 40 0 0.0 0.0 0.00 0.08 0.00 90 1013.8
20260507061515 38 227 0.0 1.7 0.00 0.10 0.00 88 1013.6
20260507054516 38 226 5.2 7.8 0.00 0.14 0.00 87 1013.3
20260507053016 38 226 8.7 12.2 0.00 0.16 0.00 88 1013.2
20260507050016 37 227 9.6 11.3 0.00 0.19 0.00 92 1012.8
20260507044515 37 223 8.7 10.4 0.00 0.20 0.00 96 1012.7
20260507043014 37 223 8.7 10.4 0.00 0.20 0.00 98 1012.7
20260507041514 36 223 7.8 9.6 0.00 0.20 0.00 99 1012.5
20260507040015 36 222 7.0 8.7 0.00 0.20 0.00 99 1012.4
20260507034514 37 224 7.0 10.4 0.00 0.20 0.00 99 1012.4
20260507033017 37 217 5.2 7.8 0.00 0.20 0.00 99 1012.3
20260507031514 37 207 5.2 7.8 0.00 0.20 0.00 99 1012.4
20260507024514 37 200 5.2 9.6 0.00 0.20 0.00 99 1012.5
20260507023014 37 199 5.2 11.3 0.00 0.20 0.00 99 1012.4
20260507020014 37 193 7.0 8.7 0.00 0.20 0.00 99 1012.5
20260507014514 38 207 7.8 11.3 0.00 0.20 0.00 99 1012.5
20260507013013 37 208 9.6 13.0 0.00 0.20 0.00 99 1012.5
20260507011520 37 197 4.3 7.8 0.00 0.20 0.00 99 1012.6
20260507010020 37 187 4.3 7.0 0.00 0.20 0.00 99 1012.7
20260507004518 38 170 7.8 9.6 0.00 0.20 0.00 99 1012.7
20260507003019 37 187 6.1 7.8 0.00 0.20 0.00 99 1012.6
20260507001518 37 171 8.7 12.2 0.00 0.20 0.00 99 1012.7
20260507000019 37 158 7.0 9.6 0.00 0.20 0.00 99 1012.7
20260506234518 37 147 7.8 10.4 0.00 0.20 0.00 99 1012.8
20260506233018 36 146 8.7 10.4 0.00 0.20 0.00 99 1012.6
20260506231518 36 164 9.6 13.9 0.00 0.20 0.00 99 1012.6
20260506230018 37 177 9.6 14.8 0.00 0.20 0.00 99 1012.8
20260506224518 37 170 9.6 18.2 0.00 0.20 0.00 99 1012.9
20260506223017 38 149 7.0 10.4 0.00 0.20 0.00 99 1012.8
20260506221517 38 157 9.6 13.9 0.00 0.20 0.00 99 1012.8
20260506220019 38 157 9.6 14.8 0.00 0.20 0.00 99 1012.7
20260506213017 39 170 13.0 17.4 0.00 0.20 0.20 99 1013.0
20260506211517 40 176 12.2 20.0 0.00 0.20 0.20 99 1013.1
20260506210017 38 178 13.0 20.9 0.00 0.20 0.20 99 1012.5
20260506204520 40 179 13.0 21.7 0.00 0.20 0.20 99 1012.9
20260506203016 40 171 14.8 23.5 0.00 0.20 0.20 99 1012.8
20260506201516 41 165 14.8 24.3 0.00 0.20 0.20 99 1012.7
20260506200017 41 156 14.8 24.3 0.00 0.20 0.20 99 1012.5
20260506194516 41 151 15.6 22.6 0.00 0.20 0.20 99 1012.3
20260506191516 41 154 14.8 21.7 0.00 0.21 0.20 99 1012.1
20260506190018 41 153 13.0 20.0 0.00 0.21 0.20 99 1012.1
20260506184516 41 158 15.6 20.9 0.02 0.21 0.20 99 1012.0
20260506183015 41 149 12.2 19.1 0.02 0.21 0.20 99 1012.0
20260506181516 41 160 16.5 26.1 0.02 0.22 0.20 99 1011.9
20260506180016 41 127 18.2 26.9 0.02 0.22 0.20 99 1011.7
20260506174515 41 105 7.0 14.8 0.00 0.20 0.19 99 1011.1
20260506173016 41 163 13.0 25.2 0.00 0.20 0.19 99 1011.5
20260506171515 42 150 13.0 20.0 0.00 0.20 0.19 99 1011.4
20260506163017 42 169 12.2 18.2 0.00 0.21 0.19 99 1011.1
20260506161516 42 181 9.6 18.2 0.00 0.21 0.19 99 1011.1
20260506160015 42 172 14.8 28.7 0.00 0.21 0.19 99 1011.1
20260506151515 42 190 13.9 22.6 0.00 0.23 0.19 99 1011.2
20260506150015 42 175 13.9 23.5 0.00 0.24 0.19 99 1011.2
20260506143015 42 187 8.7 15.6 0.00 0.25 0.19 99 1011.3